WA8SIE Weather Reports


Display with metric or nautical units.
time (UTC)temp
F
wind
direction
speed
MPH
gust
MPH
rain 1hr
in
rain 24hr
in
rain mn
in
humidity
%
barometer
mb
20260905053011 74 132 0.0 0.0 0.00 0.00 0.00 100 1009.4
20260905052511 74 132 0.0 0.0 0.00 0.00 0.00 100 1009.6
20260905052011 74 132 0.0 0.0 0.00 0.00 0.00 100 1009.6
20260905051011 74 133 0.0 0.0 0.00 0.00 0.00 100 1009.6
20260905050511 74 132 0.0 0.0 0.00 0.00 0.00 100 1009.6
20260905050013 74 132 0.0 0.0 0.00 0.00 0.00 100 1009.6
20260905045511 74 132 0.0 0.0 0.00 0.00 0.00 100 1009.7
20260905045011 74 131 0.0 0.0 0.00 0.00 0.00 100 1009.7
20260905044511 75 132 0.0 0.0 0.00 0.00 0.00 100 1009.7
20260905044011 75 132 0.0 0.0 0.00 0.00 0.00 100 1009.7
20260905043511 75 131 0.0 0.0 0.00 0.00 0.00 100 1009.7
20260905043011 75 132 0.0 0.0 0.00 0.00 0.00 100 1009.7
20260905042511 75 131 0.0 0.0 0.00 0.00 0.00 100 1009.7
20260905042011 75 131 0.0 0.0 0.00 0.00 0.00 100 1009.7
20260905041511 75 133 0.0 0.0 0.00 0.00 0.00 100 1009.7
20260905041012 75 131 0.0 0.0 0.00 0.00 0.00 100 1009.7
20260905040011 75 132 0.0 0.0 0.00 0.00 0.00 99 1009.7
20260905035511 75 132 0.0 0.0 0.00 0.00 0.00 99 1009.5
20260905035013 75 133 0.0 0.0 0.00 0.00 0.00 99 1009.5
20260905034511 75 132 0.0 0.0 0.00 0.00 0.00 99 1009.5
20260905034011 75 132 0.0 0.0 0.00 0.00 0.00 98 1009.4
20260905033511 75 133 0.0 0.0 0.00 0.00 0.00 98 1009.4
20260905033011 76 132 0.0 0.0 0.00 0.00 0.00 98 1009.4
20260905032511 76 132 0.0 0.0 0.00 0.00 0.00 98 1009.2
20260905032011 76 132 0.0 0.0 0.00 0.00 0.00 97 1009.2
20260905031511 76 132 0.0 0.0 0.00 0.00 0.00 97 1009.2
20260905030511 76 132 0.0 0.0 0.00 0.00 0.00 97 1009.5
20260905030010 76 132 0.0 0.0 0.00 0.00 0.00 97 1009.5
20260905024511 76 132 0.0 0.0 0.00 0.00 0.00 96 1009.3
20260905024011 77 132 0.0 0.0 0.00 0.00 0.00 96 1009.3
20260905023511 77 131 0.0 0.0 0.00 0.00 0.00 96 1009.3
20260905023011 77 132 0.0 0.0 0.00 0.00 0.00 95 1009.3
20260905022510 77 132 0.0 0.0 0.00 0.00 0.00 95 1009.3
20260905022011 77 133 0.0 0.0 0.00 0.00 0.00 95 1009.3
20260905021511 77 132 0.0 0.0 0.00 0.00 0.00 95 1009.3
20260905021011 77 132 0.0 0.0 0.00 0.00 0.00 94 1009.3
20260905020510 77 132 0.0 0.0 0.00 0.00 0.00 94 1009.3
20260905015510 78 133 0.0 0.0 0.00 0.00 0.00 94 1009.5
20260905015011 78 131 0.0 0.0 0.00 0.00 0.00 93 1009.5
20260905014510 78 132 0.0 0.0 0.00 0.00 0.00 93 1009.5
20260905014012 78 131 0.0 0.0 0.00 0.00 0.00 93 1009.3
20260905013010 78 132 0.0 0.0 0.00 0.00 0.00 92 1009.3
20260905012512 78 132 0.0 0.0 0.00 0.00 0.00 92 1009.3
20260905012010 78 132 0.0 0.0 0.00 0.00 0.00 92 1009.3
20260905011010 78 132 0.0 0.0 0.00 0.00 0.00 91 1009.0
20260905010510 78 132 0.0 0.0 0.00 0.00 0.00 91 1009.0
20260905010010 79 132 0.0 0.0 0.00 0.00 0.00 91 1009.0
20260905005511 79 132 0.0 0.0 0.00 0.00 0.00 90 1008.7
20260905005010 79 132 0.0 0.0 0.00 0.00 0.00 90 1008.7
20260905004510 80 132 0.0 0.0 0.00 0.00 0.00 88 1008.7
20260905004011 80 132 0.0 0.0 0.00 0.00 0.00 87 1008.1
20260905003010 80 132 0.0 0.0 0.00 0.00 0.00 86 1008.1
20260905002512 81 132 0.0 0.0 0.00 0.00 0.00 84 1007.5
20260905002010 81 132 0.0 0.0 0.00 0.00 0.00 83 1007.5
20260905001010 81 132 0.0 0.0 0.00 0.00 0.00 83 1007.6
20260905000510 81 132 0.0 0.0 0.00 0.00 0.00 82 1007.6
20260905000012 82 132 0.0 2.0 0.00 0.00 0.00 82 1007.6
20260904235510 82 132 0.0 0.0 0.00 0.00 0.00 82 1007.8
20260904235010 82 132 0.0 0.0 0.00 0.00 0.00 82 1007.8
20260904234510 82 132 0.0 0.0 0.00 0.00 0.00 82 1007.8
20260904234010 82 132 0.0 0.0 0.00 0.00 0.00 80 1008.1
20260904233510 82 132 0.0 2.0 0.00 0.00 0.00 78 1008.1
20260904233010 82 132 0.0 0.0 0.00 0.00 0.00 77 1008.1
20260904232510 82 103 0.0 0.0 0.00 0.00 0.00 77 1008.8
20260904231510 83 102 0.0 0.0 0.00 0.00 0.00 71 1008.8
20260904231010 84 103 0.0 0.0 0.00 0.00 0.00 73 1008.8
20260904230510 84 103 0.0 0.0 0.00 0.00 0.00 69 1008.8
20260904230010 84 103 0.0 0.0 0.00 0.00 0.00 69 1008.8
20260904225013 84 117 0.0 0.0 0.00 0.00 0.00 70 1008.9
20260904224511 84 141 0.0 4.0 0.00 0.00 0.00 70 1008.9
20260904224012 84 181 0.0 0.0 0.00 0.00 0.00 69 1009.3
20260904223511 84 199 0.0 0.0 0.00 0.00 0.00 70 1009.3
20260904223011 84 155 0.0 0.0 0.00 0.00 0.00 69 1009.3
20260904222511 84 116 1.0 0.0 0.00 0.00 0.00 69 1009.7
20260904222013 84 25 2.0 0.0 0.00 0.00 0.00 69 1009.7
20260904221511 85 26 0.0 0.0 0.00 0.00 0.00 69 1009.7
20260904221011 85 26 0.0 0.0 0.00 0.00 0.00 67 1009.8
20260904220011 85 161 0.0 0.0 0.00 0.00 0.00 68 1009.8
20260904215511 85 161 0.0 1.0 0.00 0.00 0.00 67 1009.7
20260904215011 85 55 0.0 0.0 0.00 0.00 0.00 67 1009.7
20260904214511 85 55 0.0 0.0 0.00 0.00 0.00 67 1009.7
20260904214011 85 55 0.0 0.0 0.00 0.00 0.00 67 1010.0
20260904213511 85 55 0.0 0.0 0.00 0.00 0.00 66 1010.0
20260904213011 85 41 0.0 1.0 0.00 0.00 0.00 67 1010.0
20260904212511 85 41 0.0 0.0 0.00 0.00 0.00 67 1009.8
20260904212011 85 41 0.0 0.0 0.00 0.00 0.00 67 1009.8
20260904211511 86 42 0.0 0.0 0.00 0.00 0.00 66 1009.8
20260904211011 86 41 0.0 0.0 0.00 0.00 0.00 66 1009.9
20260904210513 86 107 0.0 0.0 0.00 0.00 0.00 66 1009.9
20260904210012 86 115 0.0 0.0 0.00 0.00 0.00 66 1009.9
20260904205513 86 115 0.0 0.0 0.00 0.00 0.00 65 1009.5
20260904205011 86 115 0.0 0.0 0.00 0.00 0.00 65 1009.5
20260904204512 87 113 0.0 0.0 0.00 0.00 0.00 65 1009.5
20260904204011 88 240 0.0 5.0 0.00 0.00 0.00 64 1009.2
20260904203011 88 331 0.0 0.0 0.00 0.00 0.00 62 1009.2
20260904202511 89 331 0.0 0.0 0.00 0.00 0.00 61 1009.7
20260904202012 90 64 0.0 0.0 0.00 0.00 0.00 59 1009.7
20260904201511 92 50 0.0 11.0 0.00 0.00 0.00 55 1009.7
20260904201011 92 278 0.0 0.0 0.00 0.00 0.00 53 1009.1
20260904200511 92 194 0.0 0.0 0.00 0.00 0.00 50 1009.1
20260904200011 93 199 0.0 0.0 0.00 0.00 0.00 53 1009.1
20260904195511 93 199 0.0 0.0 0.00 0.00 0.00 53 1009.2
20260904195011 92 149 0.0 3.0 0.00 0.00 0.00 55 1009.2
20260904193511 91 176 0.0 0.0 0.00 0.00 0.00 56 1009.5
20260904192511 90 303 0.0 0.0 0.00 0.00 0.00 58 1009.2
20260904191511 90 186 0.0 0.0 0.00 0.00 0.00 59 1009.2
20260904191011 90 127 0.0 0.0 0.00 0.00 0.00 61 1010.1
20260904190510 90 122 1.0 0.0 0.00 0.00 0.00 62 1010.1
20260904190011 90 122 0.0 7.0 0.00 0.00 0.00 61 1010.1
20260904185512 90 278 0.0 0.0 0.00 0.00 0.00 59 1010.0
20260904185011 90 333 3.0 0.0 0.00 0.00 0.00 59 1010.0
20260904184511 91 326 4.0 0.0 0.00 0.00 0.00 60 1010.0
20260904184011 91 270 0.0 0.0 0.00 0.00 0.00 57 1009.5
20260904183511 90 212 0.0 3.0 0.00 0.00 0.00 61 1009.5
20260904183011 90 212 0.0 0.0 0.00 0.00 0.00 69 1009.5
20260904182511 89 212 2.0 0.0 0.00 0.00 0.00 67 1009.5
20260904182012 90 212 0.0 0.0 0.00 0.00 0.00 68 1009.5
20260904181010 91 212 2.0 0.0 0.00 0.00 0.00 62 1009.7
20260904180510 92 259 0.0 0.0 0.00 0.00 0.00 60 1009.7
20260904175510 93 259 0.0 0.0 0.00 0.00 0.00 56 1009.8
20260904175011 94 259 0.0 0.0 0.00 0.00 0.00 54 1009.8
20260904174511 95 242 0.0 1.0 0.00 0.00 0.00 52 1009.8
20260904174012 95 241 0.0 0.0 0.00 0.00 0.00 51 1010.2
20260904173511 94 316 0.0 0.0 0.00 0.00 0.00 53 1010.2
20260904173011 94 319 0.0 0.0 0.00 0.00 0.00 53 1010.2
20260904172510 94 338 0.0 0.0 0.00 0.00 0.00 55 1010.4
20260904172010 94 1 0.0 5.0 0.00 0.00 0.00 55 1010.4
20260904171511 94 321 5.0 0.0 0.00 0.00 0.00 56 1010.4
20260904171010 94 335 0.0 0.0 0.00 0.00 0.00 54 1010.3
20260904170511 94 10 2.0 0.0 0.00 0.00 0.00 54 1010.3
20260904170010 94 186 0.0 0.0 0.00 0.00 0.00 55 1010.3
20260904165512 94 8 5.0 1.0 0.00 0.00 0.00 55 1010.5
20260904165010 94 314 0.0 0.0 0.00 0.00 0.00 56 1010.5
20260904164511 93 300 0.0 0.0 0.00 0.00 0.00 56 1010.5
20260904164010 93 185 0.0 0.0 0.00 0.00 0.00 58 1010.6
20260904163510 93 188 5.0 0.0 0.00 0.00 0.00 58 1010.6
20260904163010 93 309 0.0 6.0 0.00 0.00 0.00 58 1010.6
20260904162011 92 258 0.0 0.0 0.00 0.00 0.00 61 1010.9
20260904161511 92 268 0.0 0.0 0.00 0.00 0.00 61 1010.9
20260904161011 91 326 2.0 0.0 0.00 0.00 0.00 60 1011.0
20260904160511 91 326 0.0 4.0 0.00 0.00 0.00 60 1011.0
20260904160010 91 281 0.0 0.0 0.00 0.00 0.00 62 1011.0
20260904155510 91 43 3.0 0.0 0.00 0.00 0.00 64 1011.1
20260904154510 90 321 0.0 0.0 0.00 0.00 0.00 65 1011.1
20260904154012 90 219 0.0 2.0 0.00 0.00 0.00 66 1011.2
20260904153011 90 219 0.0 0.0 0.00 0.00 0.00 66 1011.2
20260904152510 89 219 0.0 0.0 0.00 0.00 0.00 67 1011.1
20260904152010 89 219 0.0 0.0 0.00 0.00 0.00 67 1011.1
20260904151512 88 219 0.0 3.0 0.00 0.00 0.00 68 1011.1
20260904151012 88 219 0.0 0.0 0.00 0.00 0.00 69 1011.3
20260904145012 86 220 1.0 4.0 0.00 0.00 0.00 70 1011.3
20260904144512 86 236 0.0 0.0 0.00 0.00 0.00 70 1011.3
20260904144011 86 236 0.0 0.0 0.00 0.00 0.00 70 1011.4
20260904143511 86 236 0.0 0.0 0.00 0.00 0.00 73 1011.4
20260904143011 86 236 0.0 0.0 0.00 0.00 0.00 73 1011.4
20260904142011 85 236 0.0 0.0 0.00 0.00 0.00 75 1011.3
20260904141513 85 236 0.0 0.0 0.00 0.00 0.00 76 1011.3
20260904141011 84 236 0.0 0.0 0.00 0.00 0.00 77 1011.3
20260904140011 83 236 0.0 0.0 0.00 0.00 0.00 79 1011.3
20260904135511 83 236 0.0 0.0 0.00 0.00 0.00 80 1011.3
20260904134511 82 236 0.0 0.0 0.00 0.00 0.00 83 1011.3
20260904134011 82 236 0.0 0.0 0.00 0.00 0.00 84 1011.4
20260904133512 81 236 0.0 0.0 0.00 0.00 0.00 85 1011.4
20260904133013 81 236 0.0 0.0 0.00 0.00 0.00 86 1011.4
20260904132511 80 236 0.0 0.0 0.00 0.00 0.00 87 1011.5
20260904132013 80 236 0.0 0.0 0.00 0.00 0.00 87 1011.5
20260904131511 79 236 0.0 0.0 0.00 0.00 0.00 88 1011.5
20260904131011 79 236 0.0 0.0 0.00 0.00 0.00 90 1011.5
20260904130011 78 216 0.0 0.0 0.00 0.00 0.00 92 1011.5
20260904125513 78 216 0.0 0.0 0.00 0.00 0.00 94 1011.4
20260904125011 78 216 0.0 0.0 0.00 0.00 0.00 96 1011.4
20260904124511 77 216 0.0 0.0 0.00 0.00 0.00 98 1011.4
20260904124012 77 216 0.0 0.0 0.00 0.00 0.00 99 1011.5
20260904123511 76 216 0.0 0.0 0.00 0.00 0.00 100 1011.5
20260904123011 76 216 0.0 0.0 0.00 0.00 0.00 100 1011.5
20260904122511 75 216 0.0 0.0 0.00 0.00 0.00 100 1011.4
20260904121511 75 216 0.0 0.0 0.00 0.00 0.00 100 1011.4
20260904120511 74 216 0.0 0.0 0.00 0.00 0.00 100 1011.3
20260904120011 74 216 0.0 0.0 0.00 0.00 0.00 100 1011.3
20260904115511 74 216 0.0 0.0 0.00 0.00 0.00 100 1011.4
20260904115011 74 216 0.0 0.0 0.00 0.00 0.00 100 1011.4
20260904114511 73 216 0.0 0.0 0.00 0.00 0.00 100 1011.4
20260904113511 73 215 0.0 0.0 0.00 0.00 0.00 100 1011.2
20260904113012 73 216 0.0 0.0 0.00 0.00 0.00 100 1011.2
20260904112512 73 216 0.0 0.0 0.00 0.00 0.00 100 1011.0
20260904112012 73 216 0.0 0.0 0.00 0.00 0.00 100 1011.0
20260904111510 73 216 0.0 0.0 0.00 0.00 0.00 100 1011.0
20260904111010 73 216 0.0 0.0 0.00 0.00 0.00 100 1010.8
20260904110511 73 216 0.0 0.0 0.00 0.00 0.00 100 1010.8
20260904110011 73 216 0.0 0.0 0.00 0.00 0.00 100 1010.8
20260904105512 73 216 0.0 0.0 0.00 0.00 0.00 100 1010.8
20260904105011 73 216 0.0 0.0 0.00 0.00 0.00 100 1010.8
20260904104011 73 216 0.0 0.0 0.00 0.00 0.00 100 1010.8
20260904103511 74 216 0.0 0.0 0.00 0.00 0.00 100 1010.8
20260904103011 74 216 0.0 0.0 0.00 0.00 0.00 100 1010.8
20260904102510 74 216 0.0 0.0 0.00 0.00 0.00 100 1010.8
20260904102010 74 216 0.0 0.0 0.00 0.00 0.00 100 1010.8
20260904101510 74 216 0.0 1.0 0.00 0.00 0.00 100 1010.8
20260904101011 74 215 0.0 0.0 0.00 0.00 0.00 100 1010.7
20260904100510 74 216 0.0 0.0 0.00 0.00 0.00 100 1010.7
20260904100011 74 216 0.0 0.0 0.00 0.00 0.00 100 1010.7
20260904095512 74 216 0.0 0.0 0.00 0.00 0.00 100 1010.7
20260904095011 74 216 0.0 0.0 0.00 0.00 0.00 100 1010.7
20260904094511 74 216 0.0 0.0 0.00 0.00 0.00 100 1010.7
20260904093011 74 216 0.0 0.0 0.00 0.00 0.00 100 1010.6
20260904092512 74 216 0.0 0.0 0.00 0.00 0.00 100 1010.3
20260904092011 74 216 0.0 0.0 0.00 0.00 0.00 100 1010.3
20260904091511 74 216 0.0 0.0 0.00 0.00 0.00 100 1010.3
20260904091011 74 216 0.0 0.0 0.00 0.00 0.00 100 1010.2
20260904090511 74 216 0.0 0.0 0.00 0.00 0.00 100 1010.2
20260904090011 74 216 0.0 0.0 0.00 0.00 0.00 100 1010.2
20260904085511 74 216 0.0 0.0 0.00 0.00 0.00 100 1010.1
20260904085011 74 216 0.0 0.0 0.00 0.00 0.00 100 1010.1
20260904084510 74 216 0.0 0.0 0.00 0.00 0.00 100 1010.1
20260904084011 74 216 0.0 0.0 0.00 0.00 0.00 100 1010.0
20260904083510 74 216 1.0 2.0 0.00 0.00 0.00 100 1010.0
20260904083010 75 216 0.0 0.0 0.00 0.00 0.00 100 1010.0
20260904082510 75 216 0.0 0.0 0.00 0.00 0.00 100 1010.0
20260904082012 75 216 0.0 0.0 0.00 0.00 0.00 100 1010.0
20260904081510 75 216 0.0 0.0 0.00 0.00 0.00 100 1010.0
20260904081012 75 216 1.0 3.0 0.00 0.00 0.00 100 1010.1
20260904080510 75 216 0.0 0.0 0.00 0.00 0.00 100 1010.1
20260904074010 75 216 0.0 0.0 0.00 0.00 0.00 100 1010.1
20260904073510 75 216 0.0 0.0 0.00 0.00 0.00 100 1010.1
20260904073011 75 216 0.0 0.0 0.00 0.00 0.00 100 1010.1
20260904071510 75 216 0.0 0.0 0.00 0.00 0.00 100 1010.1
20260904071013 75 216 0.0 0.0 0.00 0.00 0.00 100 1010.0
20260904070511 76 216 0.0 0.0 0.00 0.00 0.00 100 1010.0
20260904070011 76 216 0.0 0.0 0.00 0.00 0.00 100 1010.0
20260904065012 75 216 0.0 0.0 0.00 0.00 0.00 100 1010.1
20260904064511 76 216 0.0 0.0 0.00 0.00 0.00 100 1010.1
20260904064013 76 216 0.0 0.0 0.00 0.00 0.00 100 1010.2
20260904063511 76 216 0.0 0.0 0.00 0.00 0.00 100 1010.2
20260904062511 76 216 0.0 0.0 0.00 0.00 0.00 100 1010.3
20260904062011 76 215 0.0 0.0 0.00 0.00 0.00 100 1010.3
20260904061511 76 216 0.0 0.0 0.00 0.00 0.00 100 1010.3
20260904061011 76 216 0.0 0.0 0.00 0.00 0.00 100 1010.5
20260904060511 76 216 0.0 0.0 0.00 0.00 0.00 100 1010.5
20260904060011 76 216 0.0 0.0 0.00 0.00 0.00 100 1010.5
20260904055511 76 216 0.0 0.0 0.00 0.00 0.00 100 1010.5
20260904055013 76 215 0.0 0.0 0.00 0.00 0.00 100 1010.5
20260904054511 76 216 0.0 0.0 0.00 0.00 0.00 100 1010.5
20260904054011 77 216 0.0 0.0 0.00 0.00 0.00 100 1010.6
20260904053511 77 216 0.0 0.0 0.00 0.00 0.00 100 1010.6